Lake Gaston Weather Center

Moon Phase Calendar



Lake Gaston Water Level
Online Cameras

 


      

Current Conditions in Vaughan
7/30/2021 3:43:57 PM

91°F
Feels Like 100
Clouds
Humidity
55%
Pressure
29.91"
Wind
3 mph (SSW)
Dew Point
73°F
UV Index
4/10 (Moderate)
Visibility
6 mi

Hourly Forecast

Date & Time Fri, Jul 30
3:00 PM
Fri, Jul 30
4:00 PM
Fri, Jul 30
5:00 PM
Fri, Jul 30
6:00 PM
Fri, Jul 30
7:00 PM
Fri, Jul 30
8:00 PM
Fri, Jul 30
9:00 PM
Fri, Jul 30
10:00 PM
Fri, Jul 30
11:00 PM
Sat, Jul 31
12:00 AM
Sat, Jul 31
1:00 AM
Sat, Jul 31
2:00 AM
Sat, Jul 31
3:00 AM
Sat, Jul 31
4:00 AM
Sat, Jul 31
5:00 AM
Sat, Jul 31
6:00 AM
Sat, Jul 31
7:00 AM
Sat, Jul 31
8:00 AM
Sat, Jul 31
9:00 AM
Sat, Jul 31
10:00 AM
Sat, Jul 31
11:00 AM
Sat, Jul 31
12:00 PM
Sat, Jul 31
1:00 PM
Sat, Jul 31
2:00 PM
Sat, Jul 31
3:00 PM
Sat, Jul 31
4:00 PM
Sat, Jul 31
5:00 PM
Sat, Jul 31
6:00 PM
Sat, Jul 31
7:00 PM
Sat, Jul 31
8:00 PM
Sat, Jul 31
9:00 PM
Sat, Jul 31
10:00 PM
Sat, Jul 31
11:00 PM
Sun, Aug 1
12:00 AM
Sun, Aug 1
1:00 AM
Sun, Aug 1
2:00 AM
Sun, Aug 1
3:00 AM
Sun, Aug 1
4:00 AM
Sun, Aug 1
5:00 AM
Sun, Aug 1
6:00 AM
Sun, Aug 1
7:00 AM
Sun, Aug 1
8:00 AM
Sun, Aug 1
9:00 AM
Sun, Aug 1
10:00 AM
Sun, Aug 1
11:00 AM
Sun, Aug 1
12:00 PM
Sun, Aug 1
1:00 PM
Sun, Aug 1
2:00 PM
Condition
Clouds

Clouds

Clouds

Clouds

Clouds

Clouds

Clouds

Clouds

Rain

Clouds

Clouds

Clouds

Clouds

Clouds

Clouds

Clouds

Clouds

Clouds

Clouds

Clouds

Clouds

Clouds

Clouds

Clouds

Clouds

Clouds

Clouds

Clouds

Clouds

Clouds

Clouds

Rain

Rain

Rain

Rain

Rain

Rain

Rain

Rain

Clouds

Rain

Rain

Rain

Clouds

Clouds

Clouds

Clouds

Clouds
Temperature 92°F91°F91°F90°F88°F83°F77°F77°F75°F73°F73°F72°F72°F71°F70°F69°F70°F72°F76°F79°F82°F86°F89°F92°F93°F93°F92°F91°F86°F79°F77°F74°F72°F71°F70°F70°F70°F70°F70°F70°F71°F71°F73°F75°F76°F78°F82°F87°F
Feels Like 99°F100°F99°F97°F96°F88°F79°F78°F76°F74°F74°F73°F73°F72°F70°F70°F70°F73°F76°F79°F85°F88°F91°F95°F96°F94°F93°F92°F89°F80°F78°F75°F73°F72°F72°F71°F71°F71°F71°F71°F72°F73°F74°F76°F77°F79°F87°F91°F
Cloudiness 72%75%66%57%45%45%100%100%100%97%91%78%99%53%39%29%24%21%46%30%24%21%26%24%16%15%18%38%48%53%44%72%81%86%89%91%100%100%100%100%99%99%99%99%99%99%99%98%
Visibility 6 mi6 mi6 mi6 mi6 mi6 mi6 mi6 mi6 mi6 mi6 mi6 mi6 mi6 mi6 mi6 mi6 mi6 mi6 mi6 mi6 mi6 mi6 mi6 mi6 mi6 mi6 mi6 mi6 mi6 mi6 mi6 mi6 mi6 mi6 mi4 mi4 mi6 mi6 mi4 mi1 mi0 mi6 mi6 mi6 mi6 mi6 mi6 mi
Precipitation 0%19%27%27%27%31%24%28%24%20%32%28%4%4%0%0%0%0%0%0%0%0%0%0%0%0%0%0%0%0%19%35%63%98%99%100%100%100%100%80%100%100%67%63%60%56%60%56%
Humidity 50%55%53%55%59%69%81%81%86%90%92%92%91%89%87%88%84%80%72%64%58%53%48%44%40%38%36%39%54%74%77%86%91%96%98%98%98%99%99%99%99%98%95%93%88%82%70%53%
Dew Point 71°F73°F72°F72°F72°F72°F71°F71°F70°F70°F70°F69°F69°F67°F65°F66°F65°F66°F66°F66°F66°F66°F67°F67°F66°F63°F62°F62°F68°F70°F69°F70°F69°F70°F70°F69°F69°F69°F69°F70°F70°F71°F71°F72°F72°F72°F71°F68°F
Pressure 29.88"29.91"29.88"29.88"29.88"29.85"29.88"29.88"29.91"29.91"29.91"29.91"29.91"29.91"29.91"29.94"29.94"29.97"29.97"29.97"29.97"29.94"29.94"29.91"29.91"29.88"29.88"29.85"29.88"29.88"29.91"29.91"29.91"29.91"29.88"29.88"29.88"29.88"29.88"29.85"29.85"29.88"29.88"29.88"29.88"29.88"29.85"29.83"
Wind Speed 6.7 mph8.9 mph10.1 mph2.4 mph2.5 mph3.6 mph5.7 mph6.9 mph4.9 mph4.2 mph3.4 mph4.4 mph4.6 mph5.6 mph6.6 mph7.1 mph7.8 mph9 mph8.8 mph7.8 mph6.9 mph5.4 mph4.1 mph2.8 mph2.2 mph4.9 mph5.2 mph3.5 mph6.6 mph8.9 mph7.2 mph7.2 mph7.4 mph5.1 mph6.3 mph4.5 mph3.1 mph5.1 mph5.2 mph5.4 mph3.1 mph1.5 mph2.4 mph0.2 mph1 mph4 mph4.3 mph6.1 mph
Wind
Direction
250°
WSW
222°
SW
212°
SSW
230°
SW
22°
NNE
39°
NE
54°
NE
95°
E
112°
ESE
83°
E
37°
NE
42°
NE
30°
NNE
21°
NNE
23°
NNE
21°
NNE
24°
NNE
34°
NE
50°
NE
59°
ENE
53°
NE
62°
ENE
53°
NE
25°
NNE
315°
NW
296°
WNW
306°
NW
338°
NNW
66°
ENE
101°
E
109°
ESE
108°
ESE
117°
ESE
88°
E
111°
ESE
110°
ESE
104°
ESE
101°
E
98°
E
94°
E
101°
E
63°
ENE
118°
ESE
78°
ENE
305°
NW
303°
WNW
314°
NW
309°
NW

Daily Forecast

Date High Low Precip. Humidity
Today
Jul 30

Rain
93 °F
73 °F
39%
47%
Saturday
Jul 31

Rain
93 °F
69 °F
63%
48%
Sunday
Aug 1

Rain
89 °F
70 °F
100%
53%
Monday
Aug 2

Clouds
87 °F
67 °F
0%
36%
Tuesday
Aug 3

Clouds
78 °F
65 °F
0%
74%
Wednesday
Aug 4

Rain
72 °F
63 °F
91%
96%
Thursday
Aug 5

Rain
71 °F
68 °F
100%
99%
Friday
Aug 6

Rain
74 °F
69 °F
100%
96%
Saturday
Aug 7

Rain
78 °F
70 °F
100%
82%
Sunday
Aug 8

Rain
87 °F
69 °F
96%
54%
Monday
Aug 9

Rain
90 °F
69 °F
100%
49%
Tuesday
Aug 10

Rain
89 °F
70 °F
100%
51%
Wednesday
Aug 11

Rain
90 °F
70 °F
86%
49%
Thursday
Aug 12

Clear
91 °F
73 °F
29%
47%
Friday
Aug 13

Rain
85 °F
73 °F
53%
62%
Saturday
Aug 14

Rain
93 °F
71 °F
65%
49%

Temperature 8-14 Day Outlook



Precipitation 8-14 Day Outlook




Quick Links
Lake Gaston News
Lake Gaston Photos
Lake Gaston Videos




About Us
Contact Us
Site Map
Search Site
Advertise With Us
   
Gaston.USLakes.info
THE LAKE GASTON WEBSITE

Copyright 2021, Lakes Online
Privacy    |    Legal